RH
75 76 74 75 78 82 87 90 89 86 82 80 80 81 84 88 92 74 48 42 48 46 35 27 23 26 24 25 46 88 75 20 19 23 18 48 65 52 45 44 62 59 57 42 27 27 51 27 28 40 34 38 30 22
72 74 72 72 73 76 80 82 82 82 84 81 79 81 85 89 91 88 55 42 38 49 38 30 27 23 23 23 28 35 27 31 26 28 49 66 69 52 74 41 39 52 51 50 34 36 47 40 43 35 64 68 24 24
68 71 69 68 69 71 74 78 79 78 80 80 82 80 86 87 87 84 57 48 44 44 37 29 25 19 16 15 15 30 26 28 27 22 56 99 96 88 76 46 49 54 40 44 42 38 31 32 34 24 19 20 19 19
72 69 68 65 64 66 70 72 78 78 79 80 81 83 83 84 85 86 58 46 47 45 45 24 14 17 14 12 15 17 20 19 18 20 25 48 84 57 55 64 76 72 52 54 50 38 36 29 24 24 22 20 22 22
75 72 70 70 69 66 63 66 72 75 77 76 78 79 78 79 85 69 50 44 42 52 51 38 22 15 12 13 16 18 19 20 22 23 21 23 31 37 55 38 57 41 56 69 75 41 53 38 25 21 22 24 23 26
77 76 75 73 70 67 63 64 66 70 70 71 71 73 74 77 83 53 51 44 40 44 52 39 20 18 15 16 19 20 22 21 21 22 20 18 17 23 21 25 30 20 24 23 30 23 22 23 23 20 23 25 23 25
78 77 76 74 72 70 68 65 63 65 67 69 71 73 76 81 63 54 67 59 76 52 53 42 28 17 17 18 17 21 20 21 20 21 21 20 23 23 22 22 18 29 64 36 22 23 24 19 20 20 22 23 28 25
79 79 77 76 75 72 68 66 64 63 64 67 71 75 80 83 79 62 41 70 65 53 44 44 33 23 16 19 21 19 22 21 23 22 19 22 22 22 27 22 21 25 25 24 23 22 21 21 23 24 23 24 25 28
80 80 79 77 76 74 70 68 67 68 72 73 76 77 63 61 49 53 78 79 53 55 59 35 34 38 16 19 18 20 20 24 19 21 21 20 22 27 36 31 35 33 34 32 26 22 22 24 25 25 24 25 26 35
82 80 80 77 74 73 73 69 70 74 75 75 66 55 56 68 88 76 59 55 52 45 47 44 32 66 36 21 25 22 20 22 28 22 18 22 23 47 41 35 35 30 25 26 30 29 25 28 29 30 29 28 28 44
82 81 77 74 72 72 72 69 75 76 72 57 62 78 70 86 51 50 68 60 49 46 36 32 30 45 32 29 26 21 29 24 26 27 26 27 34 68 41 38 37 29 26 27 40 36 44 33 33 30 29 29 28 43
79 76 74 72 71 70 70 70 76 61 57 66 71 67 59 61 64 74 66 48 47 45 31 31 28 26 25 26 31 36 42 45 44 56 63 62 76 57 45 38 37 38 37 38 39 41 41 41 42 42 44 41 37 37
78 74 74 74 70 70 69 68 70 71 70 68 78 84 69 71 91 66 63 52 49 37 32 28 33 25 26 25 28 76 64 32 30 62 90 83 80 73 68 51 48 42 41 42 43 42 44 45 47 48 48 50 54 59
81 80 80 79 75 72 71 69 74 72 71 95 95 99 82 80 59 44 52 59 41 34 40 33 45 34 28 29 26 34 42 35 42 42 73 90 92 92 84 68 55 44 37 36 37 36 38 40 42 44 43 44 48 58
83 83 82 78 76 73 76 77 76 64 85 96 91 87 60 45 43 43 40 64 47 48 54 46 49 41 36 41 33 49 54 62 46 67 76 78 95 94 89 76 61 56 51 48 45 46 46 43 43 43 43 41 42 45
82 82 66 77 75 76 80 74 63 64 94 97 85 67 61 58 50 43 65 60 43 39 47 53 57 52 48 39 38 41 38 59 69 72 79 89 88 90 89 66 64 60 56 52 55 53 47 46 46 46 44 50 53 59
80 65 75 77 77 72 75 71 69 92 95 82 59 47 60 75 83 89 82 60 40 41 64 80 63 63 67 65 45 42 61 78 70 67 62 80 78 70 64 60 64 60 58 59 58 61 63 56 51 52 63 61 46 56
60 67 72 74 78 71 62 74 94 92 87 58 54 79 83 79 88 70 52 52 54 51 52 61 52 73 73 80 70 82 89 85 77 80 68 74 76 79 78 76 65 67 66 62 55 56 68 66 57 60 62 57 59 56
75 66 73 75 80 92 88 72 88 83 60 48 54 77 80 92 72 54 48 50 48 47 49 65 77 80 86 90 85 83 92 94 91 68 62 65 67 68 75 66 61 59 69 69 52 45 56 54 49 52 40 40 44 47
73 74 77 82 79 96 80 68 61 71 67 64 76 89 74 50 47 49 57 58 59 50 61 70 90 99 99 93 91 92 89 89 53 57 56 60 78 70 61 48 41 41 45 44 40 47 36 44 36 33 31 35 37 35
78 69 82 82 81 78 71 59 58 72 68 75 76 77 72 50 63 62 55 51 56 89 91 98 92 99 96 94 90 53 68 52 57 78 70 53 70 44 39 35 35 33 35 32 32 33 38 37 38 30 30 34 35 34
75 83 75 72 74 68 64 50 60 51 47 80 72 48 46 68 75 72 73 93 98 99 98 98 98 98 97 94 89 63 61 57 52 46 53 48 39 39 38 33 32 30 30 31 29 29 34 34 34 31 34 36 39 34
82 74 72 69 72 72 68 41 51 43 46 58 49 56 52 66 75 62 86 97 95 94 96 97 95 88 81 65 58 54 54 51 42 41 39 36 36 35 32 30 27 29 28 29 28 29 31 48 38 32 33 35 37 37
89 71 65 58 59 72 40 46 40 53 65 58 72 68 65 74 58 89 94 96 96 95 91 82 89 88 80 71 50 45 40 34 35 34 31 29 30 33 29 26 24 25 27 27 26 28 29 30 41 29 31 36 35 37
84 73 72 99 52 52 41 42 52 61 68 85 91 79 71 78 73 87 90 97 95 93 88 84 84 83 58 52 46 44 38 32 32 32 28 24 24 23 22 26 28 26 25 27 27 28 29 29 30 30 30 34 38 36
93 59 84 54 64 65 60 56 59 70 70 78 84 77 84 70 74 95 98 98 64 52 52 55 55 46 42 38 37 35 34 31 31 30 28 24 23 23 24 26 27 31 25 26 27 28 28 28 28 29 28 32 58 34
84 64 51 44 59 64 66 68 72 72 68 81 74 61 58 69 86 98 98 96 63 52 40 35 34 33 34 33 31 27 24 25 28 25 23 22 22 24 27 29 32 32 28 26 27 28 28 28 28 28 28 27 27 28
66 69 72 73 61 60 60 63 63 69 72 75 63 67 74 75 98 97 89 68 84 53 40 40 26 23 23 24 23 23 22 21 22 20 20 20 21 21 23 24 26 66 34 29 28 28 29 28 30 29 30 30 29 27
70 74 57 64 58 63 73 75 76 71 74 76 56 68 90 95 82 71 88 88 73 84 60 36 24 20 18 18 18 17 16 17 25 29 28 24 24 23 21 21 22 24 23 26 62 42 32 28 29 28 30 30 30 27
78 61 72 79 84 93 82 77 79 64 48 55 65 73 71 80 82 69 71 72 65 47 36 22 19 18 18 18 20 20 18 18 20 23 26 26 24 22 24 25 25 23 22 24 24 25 65 42 32 30 32 28 28 30
51 53 70 82 92 86 71 56 49 44 45 48 47 53 54 54 52 47 46 41 32 26 22 19 17 17 18 19 21 23 23 23 29 29 28 24 23 24 27 28 26 24 23 24 24 24 25 26 27 28 28 31 32 33
74 66 69 80 79 68 56 57 61 65 59 54 59 57 57 56 56 48 38 32 30 27 36 27 20 20 19 19 22 24 59 21 25 28 27 23 23 25 22 21 21 22 25 25 22 22 24 26 26 28 29 31 33 34
57 55 58 72 78 73 63 57 58 64 59 57 51 47 46 47 50 38 30 29 28 24 22 20 19 22 27 26 26 25 47 22 41 58 57 66 70 51 29 21 22 23 24 24 23 21 22 24 25 29 30 32 32 32
Wind_Speed
10 10 10 10 10 10 10 10 9 8 8 9 9 11 13 14 15 10 8 3 6 8 16 18 15 15 10 7 9 1 19 11 7 8 9 5 4 2 4 5 3 5 4 7 9 10 10 4 9 7 6 12 5 8
7 8 9 9 10 11 10 8 8 9 8 9 10 10 11 12 14 13 5 6 6 7 11 20 20 20 16 10 8 8 13 10 7 7 12 8 5 3 7 11 3 4 3 3 15 5 8 3 6 22 16 20 9 11
7 6 7 8 9 11 11 11 9 8 8 8 10 9 10 12 13 11 7 8 9 10 13 15 16 18 14 13 11 8 7 7 8 9 7 7 7 4 2 3 8 17 11 6 15 5 6 8 1 7 9 9 10 12
9 8 5 6 7 9 10 11 12 9 8 8 8 9 10 12 13 11 7 8 7 6 8 8 4 6 9 10 8 11 13 13 11 6 5 9 8 8 5 2 1 8 3 4 7 6 13 12 6 8 5 6 11 10
9 8 8 8 9 7 8 9 11 11 9 8 8 10 12 14 15 12 9 9 6 6 7 11 17 8 6 9 7 8 9 10 7 6 4 2 8 10 8 13 13 13 9 2 4 7 5 7 10 5 4 9 7 11
9 9 10 10 9 9 7 8 8 10 9 10 11 13 14 15 15 8 2 3 1 4 6 6 8 5 4 2 7 9 8 8 5 6 5 2 11 5 4 3 2 6 10 4 5 3 6 4 8 3 4 7 9 11
8 9 9 10 9 9 9 8 8 10 10 12 13 15 15 13 8 6 4 4 11 9 6 6 5 7 4 6 7 6 8 5 6 6 3 3 6 2 4 5 7 14 8 7 6 6 5 4 3 2 6 8 8 11
9 8 9 10 10 10 9 9 9 11 11 13 14 15 16 15 15 9 6 17 7 7 6 6 8 7 9 6 6 6 5 4 3 5 4 1 1 3 3 3 7 11 8 5 3 5 6 4 4 1 4 10 7 9
11 9 9 9 10 9 10 10 10 12 12 13 15 17 7 6 5 3 5 11 6 6 6 6 5 4 6 6 4 6 5 6 4 6 7 5 6 4 7 4 7 10 8 9 5 3 3 3 5 1 2 7 7 9
10 9 9 9 8 8 10 10 11 14 15 14 8 6 4 3 9 6 4 6 6 6 7 6 7 4 8 6 7 5 3 5 4 7 5 2 4 9 5 4 5 5 6 7 5 3 1 5 4 4 3 3 1 6
9 9 7 7 8 8 8 9 12 14 12 6 3 1 4 5 5 4 3 4 5 5 7 7 11 6 12 4 3 3 1 4 5 5 4 5 3 6 4 4 2 3 2 3 12 13 12 8 8 3 3 4 2 6
6 6 6 6 6 7 7 9 11 8 5 6 6 5 6 4 5 6 5 5 7 6 4 9 8 7 1 2 3 7 3 2 3 5 5 8 3 4 7 6 8 12 15 16 16 14 13 15 14 13 14 13 10 9
6 5 5 5 5 6 7 7 7 8 11 3 3 3 3 3 1 7 8 6 5 4 3 5 3 3 3 3 3 7 7 5 2 4 7 3 5 6 10 10 14 14 14 14 13 12 12 11 12 10 9 9 8 7
7 6 6 7 7 7 6 7 4 7 2 3 3 3 5 5 7 7 2 2 1 3 2 2 1 4 5 6 4 3 6 6 4 6 7 6 9 9 12 8 10 11 12 12 11 10 11 10 10 9 8 8 8 3
8 8 8 9 8 6 6 6 6 4 1 3 4 5 8 8 6 3 2 2 4 2 3 2 1 4 3 2 3 2 1 2 5 5 6 7 8 10 5 9 12 13 9 10 9 8 10 10 8 7 6 7 7 6
7 8 5 4 3 5 6 7 5 2 2 4 6 7 7 6 2 2 3 2 4 2 3 4 4 3 2 2 5 7 4 4 3 6 9 9 11 10 5 10 10 9 10 10 8 10 9 7 7 4 3 2 2 3
6 1 2 2 2 4 3 3 3 4 3 5 6 7 6 5 4 2 2 3 2 4 3 5 3 3 2 5 3 3 4 9 10 9 8 10 10 10 8 8 6 6 5 3 3 3 4 5 3 6 10 9 9 11
3 6 4 1 3 4 4 3 3 3 5 7 7 1 2 2 2 3 2 4 3 1 1 3 3 3 1 3 2 6 7 9 9 8 9 9 8 4 3 4 5 5 2 1 4 6 8 7 5 3 3 6 6 9
5 2 2 1 1 2 4 7 4 4 8 6 1 3 2 2 4 5 5 6 4 4 3 2 4 3 3 3 6 9 8 6 6 8 9 8 7 7 5 5 4 5 7 5 7 6 4 7 6 6 8 9 7 7
7 6 4 3 4 3 4 3 3 5 4 2 3 2 1 5 6 4 5 3 3 2 4 2 3 4 2 3 4 7 7 5 7 8 8 7 5 7 8 7 5 4 5 5 5 8 6 6 8 9 8 8 9 9
3 4 6 4 4 6 4 3 5 4 3 1 2 2 2 7 3 6 5 4 4 3 3 3 4 5 7 9 8 10 10 9 9 6 7 7 2 5 4 4 4 4 6 6 6 6 8 9 8 7 7 9 9 9
2 4 2 4 3 3 4 4 2 3 2 3 1 2 3 6 2 4 2 4 3 2 2 3 4 5 6 8 7 9 9 10 10 8 7 5 6 6 6 6 7 7 7 6 6 6 8 7 6 7 8 8 9 8
3 3 3 4 4 1 5 2 4 1 2 3 2 2 1 3 2 5 4 3 1 1 3 4 4 5 7 8 10 10 9 9 7 7 6 6 5 3 4 7 7 7 6 7 7 6 6 4 5 6 7 8 8 8
3 3 4 3 3 4 4 5 2 2 2 4 2 2 3 3 3 4 3 2 2 4 5 9 6 5 5 6 7 7 7 6 6 5 5 3 5 6 6 7 6 7 6 5 5 5 6 6 6 7 8 9 9 8
3 4 3 4 4 5 6 5 4 4 4 3 2 1 2 2 3 3 3 2 4 5 4 5 4 2 6 7 6 5 4 4 5 6 6 5 5 4 6 8 7 7 7 6 6 6 6 6 6 7 6 6 8 9
2 2 1 4 2 2 2 3 2 5 7 3 2 2 4 4 4 4 3 5 7 8 8 6 3 7 7 7 7 5 4 3 2 7 6 7 7 7 5 4 5 8 6 6 6 6 6 6 5 7 7 3 5 6
3 2 1 1 3 3 2 4 3 1 4 1 2 3 2 5 4 3 2 3 2 4 5 6 7 6 5 6 6 6 6 6 7 6 5 6 6 7 7 7 7 5 5 6 6 7 8 7 7 7 7 7 6 7
2 4 5 5 4 6 6 3 4 5 4 3 2 5 4 5 2 2 1 2 2 2 2 0 4 4 4 5 5 5 5 5 4 5 6 7 6 5 5 5 5 4 2 4 4 4 6 7 6 7 8 9 9 7
4 3 4 8 5 5 6 5 5 3 2 2 4 4 4 3 3 4 3 3 2 3 3 5 4 4 4 4 3 3 2 3 5 3 4 4 5 5 4 4 2 2 1 5 12 6 2 5 7 8 8 7 10 8
6 6 4 5 5 6 5 4 6 7 8 8 6 9 7 4 2 2 3 3 3 6 6 3 1 2 3 4 5 4 5 6 7 7 6 5 3 3 3 4 5 4 4 4 6 1 9 8 9 4 7 7 7 8
3 6 5 4 4 5 4 9 10 10 11 12 11 11 10 5 5 7 6 6 4 4 4 4 4 2 2 3 3 3 6 8 5 4 4 5 6 7 7 6 6 4 4 5 7 7 8 7 8 8 9 10 11 10
3 5 5 3 2 5 5 8 7 7 6 9 6 4 5 4 6 5 5 3 2 1 4 6 2 6 5 4 5 6 2 4 5 7 8 6 7 7 8 7 7 7 7 7 8 9 9 9 8 9 10 12 13 13
7 9 9 3 2 4 3 4 4 5 4 4 3 3 3 3 3 2 4 4 4 1 5 4 4 5 4 2 3 1 7 2 7 10 9 5 4 2 6 6 7 8 8 8 8 10 11 12 10 11 11 12 13 13
Wind_Direction
354 358 7 12 12 9 5 1 353 352 354 355 355 349 343 346 344 338 296 354 311 299 297 288 296 294 301 327 46 187 291 235 280 227 270 91 74 37 357 330 132 37 359 231 237 249 88 118 140 263 116 76 263 84
346 348 356 3 7 5 2 349 335 333 338 343 340 343 342 345 345 337 278 333 354 270 295 314 286 276 277 284 294 276 281 295 350 339 59 42 19 334 115 301 298 1 170 303 317 98 157 192 88 188 128 276 129 100
316 328 337 348 356 359 357 355 347 328 326 332 329 339 345 343 341 343 306 313 294 263 266 251 247 232 238 234 242 260 316 19 333 340 111 79 352 313 61 276 323 354 341 39 286 149 128 107 159 341 358 102 105 120
308 309 302 319 335 349 351 356 353 342 333 333 336 348 350 339 334 328 297 314 293 291 276 258 133 213 229 260 238 249 275 301 301 301 304 162 173 222 213 107 75 210 234 334 309 246 173 204 148 107 79 91 83 105
300 305 306 303 313 318 340 344 350 352 351 349 346 344 338 333 328 302 268 261 256 287 321 310 312 256 187 222 229 254 266 279 294 301 280 264 55 167 196 183 194 210 148 50 282 22 66 38 87 69 106 107 113 110
296 297 302 301 297 305 299 332 332 341 347 341 335 328 325 327 330 287 200 164 162 262 278 288 314 198 274 210 224 239 256 256 270 300 303 32 78 345 305 48 50 34 123 82 58 49 38 19 74 359 125 123 120 119
294 296 296 300 300 300 299 286 313 317 317 318 317 316 312 312 303 280 340 351 340 305 251 267 258 148 208 215 218 223 229 252 272 282 238 305 106 315 307 275 341 104 80 286 357 13 320 287 21 32 141 132 132 125
280 289 288 289 293 295 297 287 285 304 308 307 305 304 303 293 275 265 211 224 239 268 273 273 261 180 191 200 190 215 208 230 231 274 289 274 188 187 235 334 1 50 45 12 19 11 315 342 70 304 149 139 165 133
262 278 290 290 288 296 298 297 287 292 293 298 300 295 283 210 235 64 88 127 203 290 300 254 289 350 174 232 205 171 249 212 233 229 247 275 270 270 40 104 58 29 9 342 8 317 11 58 70 55 166 129 184 129
251 270 281 287 289 295 302 293 293 290 290 291 276 212 218 27 122 138 172 187 200 210 224 258 296 356 301 196 191 192 214 256 191 225 222 241 243 84 62 71 69 41 352 316 320 318 125 76 98 94 118 241 107 107
261 264 274 277 287 295 302 301 301 309 283 201 238 301 310 141 233 217 238 227 209 239 207 235 254 175 230 279 243 207 145 300 242 191 208 217 169 49 19 84 75 87 249 301 77 54 25 47 96 111 156 149 307 69
266 263 263 269 281 291 294 302 310 283 23 326 295 279 253 221 222 225 212 209 208 234 209 209 211 226 41 29 263 29 335 69 306 29 31 5 87 99 88 107 95 71 74 66 63 62 54 52 49 48 37 28 20 28
261 262 270 285 278 285 290 298 312 305 287 314 250 259 234 230 263 225 196 200 196 225 201 209 159 219 201 262 231 92 252 215 28 155 124 218 215 9 34 83 80 76 67 60 57 52 62 62 58 50 48 29 13 11
247 262 271 269 271 272 277 292 315 287 271 260 213 238 231 214 220 238 323 228 250 179 96 296 351 225 203 197 256 242 11 328 199 232 67 86 71 32 344 40 71 82 86 82 80 76 71 60 56 45 34 29 30 29
243 261 273 266 249 261 267 270 276 250 314 262 239 236 221 213 255 231 180 326 116 125 41 281 93 285 257 189 130 157 87 259 341 58 98 123 94 78 40 54 62 54 63 76 57 54 46 39 46 37 30 43 38 11
244 271 240 132 226 262 261 245 217 120 249 245 232 260 280 295 215 30 59 219 341 282 68 309 198 309 245 195 229 189 216 121 110 100 122 114 96 94 75 78 73 66 62 55 35 11 13 22 24 3 63 35 308 284
241 133 197 194 257 265 215 245 156 215 269 245 233 251 264 285 81 129 190 184 298 280 130 217 227 80 69 314 181 32 73 108 112 117 109 113 116 119 118 103 92 87 84 40 334 326 329 349 0 345 31 24 4 30
252 139 142 82 337 169 177 221 238 232 252 252 260 11 352 37 22 67 13 14 42 307 147 43 341 346 333 229 138 90 89 89 87 101 100 91 90 89 120 142 155 180 173 27 339 38 44 340 17 46 64 20 20 27
357 5 104 138 335 279 227 191 192 257 237 263 191 55 111 214 90 84 54 32 47 72 119 69 42 5 347 30 87 94 92 96 110 109 104 97 81 84 90 106 95 80 69 43 22 34 59 56 33 21 13 360 9 356
283 277 244 214 210 254 241 201 202 258 275 285 71 120 236 60 79 96 80 76 71 39 59 47 67 310 357 332 112 116 126 158 130 111 95 75 50 63 39 48 43 65 126 91 92 44 3 46 33 15 1 2 15 349
159 167 211 207 215 224 270 259 214 234 296 6 108 191 137 105 71 90 77 49 47 37 42 7 80 55 357 16 27 59 55 72 86 95 97 106 59 75 67 52 49 51 53 29 12 43 50 41 21 351 4 19 5 9
136 225 231 210 255 241 250 250 264 302 267 87 10 354 266 103 6 92 85 55 48 33 26 54 62 77 57 43 33 43 74 87 92 99 96 80 64 55 48 32 21 23 57 37 24 25 52 37 13 356 35 14 8 20
256 217 240 229 250 208 257 221 238 252 290 91 45 345 231 106 97 88 74 67 98 49 93 91 103 132 116 102 82 69 62 75 84 87 91 89 78 66 79 55 39 29 26 45 34 31 36 54 28 5 41 34 11 16
174 250 254 249 214 258 193 206 183 64 172 86 33 212 152 145 164 64 80 54 66 133 134 136 146 136 119 93 75 56 50 58 76 59 28 0 109 95 70 65 48 45 12 43 31 36 35 37 20 9 44 34 10 20
253 277 170 275 244 262 165 196 157 203 97 81 271 226 136 34 77 68 73 70 37 60 88 117 128 156 97 101 107 97 48 54 60 61 27 10 343 113 109 108 81 42 20 25 28 25 31 21 31 359 35 44 18 4
324 216 147 319 28 250 250 176 159 118 130 154 216 158 210 126 85 66 46 354 38 36 25 10 91 90 58 47 66 62 54 2 82 75 45 31 20 24 46 34 66 69 24 25 26 14 23 16 23 4 6 54 147 7
298 34 290 34 342 322 50 37 52 104 99 127 209 192 96 74 67 75 80 348 29 36 18 25 39 63 77 79 65 55 61 53 58 70 63 62 61 57 49 46 41 18 58 20 36 19 4 10 3 357 354 344 355 355
11 30 56 355 30 27 46 58 35 23 39 20 67 41 58 49 83 88 125 180 273 323 344 6 63 46 60 81 101 117 116 122 142 148 143 118 90 71 48 101 87 176 307 61 2 20 13 354 345 347 344 334 334 0
46 58 50 48 57 48 35 12 16 41 329 294 97 79 81 68 120 136 203 232 278 287 276 223 143 123 99 96 76 49 53 92 89 76 356 44 43 57 45 18 53 203 244 184 207 262 345 321 313 313 320 329 311 352
33 89 78 36 38 32 354 23 25 39 44 68 97 111 96 90 141 180 181 220 235 232 214 196 144 131 115 100 86 58 63 49 25 19 22 19 28 29 17 11 338 336 333 322 321 84 202 262 286 246 259 300 331 351
108 89 68 41 47 355 345 68 55 63 74 82 93 103 113 130 179 202 224 227 213 205 196 144 116 81 101 84 30 341 113 106 97 73 16 339 339 7 4 343 302 316 322 330 326 316 314 322 324 328 333 337 330 328
56 107 131 85 73 34 61 69 72 80 85 111 125 148 159 174 121 167 185 200 274 15 71 298 74 86 36 63 91 95 277 335 67 55 38 14 0 7 341 324 313 313 332 345 323 321 326 321 323 337 335 332 334 329
126 105 103 108 208 167 172 167 132 135 152 119 88 71 64 21 91 152 160 214 259 329 72 60 60 77 80 338 58 13 201 86 116 124 128 98 65 347 308 336 357 347 331 326 324 314 326 337 344 337 331 329 327 334